1508724000.24,17296,11.25,72846.8,-4.37,-5.77,-5.77,0,*5B
1508724001.48,17297,11.25,72850.8,-4.37,-5.77,-5.69,0,*55
1508724002.73,17298,11.25,72844.8,-4.37,-5.89,-5.89,0,*55
1508724003.97,17299,11.25,72840.3,-4.37,-5.81,-5.81,0,*54
1508724005.22,17300,11.25,72838.3,-4.37,-5.81,-5.81,0,*55
1508724006.46,17301,11.25,72840.0,-4.37,-5.89,-5.81,0,*5C
1508724007.67,17302,11.25,72842.0,-4.37,-6.05,-5.89,0,*50
1508724008.89,17303,11.25,72840.5,-4.37,-6.01,-5.93,0,*5E
1508724010.11,17304,11.25,72838.3,-4.39,-6.13,-6.13,0,*5F
1508724011.35,17305,11.25,72840.5,-4.39,-6.35,-6.27,0,*5D
1508724012.59,17306,11.25,72838.5,-4.39,-6.35,-6.27,0,*5E
1508724013.79,17307,11.25,72842.8,-4.41,-6.35,-6.35,0,*53
1508724015.01,17308,11.25,72844.0,-4.39,-6.35,-6.39,0,*5F
1508724016.23,17309,11.25,72836.8,-4.41,-6.35,-6.27,0,*5E
1508724017.46,17310,11.25,72830.5,-4.41,-6.27,-6.23,0,*51
1508724018.74,17311,11.25,72826.3,-4.43,-6.19,-6.19,0,*56
1508724019.98,17312,11.25,72830.5,-4.43,-6.19,-6.13,0,*5F
1508724021.2,17313,11.25,72832.3,-4.45,-6.19,-6.13,0,*58
1508724022.41,17314,11.25,72832.0,-4.43,-6.13,-6.01,0,*50
1508724023.62,17315,11.25,72834.5,-4.45,-6.27,-6.09,0,*58
1508724024.84,17316,11.25,72834.5,-4.43,-6.13,-6.01,0,*52
1508724026.03,17317,11.25,72836.3,-4.45,-6.05,-6.05,0,*56
1508724027.24,17318,11.25,72832.0,-4.43,-6.01,-6.01,0,*5F
1508724028.43,17319,11.25,72832.5,-4.45,-6.05,-6.05,0,*58
1508724029.65,17320,11.25,72830.0,-4.45,-6.05,-5.93,0,*5E
1508724030.87,17321,11.25,72830.0,-4.45,-6.01,-5.81,0,*58
1508724032.12,17322,11.25,72836.5,-4.45,-5.93,-5.81,0,*53
1508724033.39,17323,11.25,72834.8,-4.43,-5.89,-5.85,0,*5B
1508724034.64,17324,11.25,72828.5,-4.45,-5.93,-5.81,0,*55
1508724035.88,17325,11.25,72828.0,-4.45,-5.89,-5.81,0,*5F
1508724037.13,17326,11.25,72828.5,-4.43,-5.97,-5.85,0,*51
1508724038.38,17327,11.25,72832.5,-4.43,-5.97,-5.89,0,*5C
1508724039.63,17328,11.25,72828.3,-4.45,-5.93,-5.93,0,*5A
1508724040.85,17329,11.25,72836.3,-4.45,-6.01,-5.81,0,*50
1508724042.1,17330,11.19,72832.8,-4.43,-5.97,-5.85,0,*56
1508724043.34,17331,11.25,72828.3,-4.43,-5.97,-5.89,0,*5B
1508724044.61,17332,11.25,72836.0,-4.43,-5.89,-5.77,0,*56
1508724045.87,17333,11.25,72834.5,-4.43,-5.73,-5.65,0,*51
1508724047.14,17334,11.25,72840.5,-4.43,-5.65,-5.73,0,*56
1508724048.4,17335,11.25,72840.3,-4.43,-5.85,-5.73,0,*59
1508724049.65,17336,11.25,72836.8,-4.45,-5.89,-5.77,0,*54
1508724050.92,17337,11.19,72838.8,-4.43,-5.77,-5.85,0,*5F
1508724052.16,17338,11.25,72838.8,-4.45,-5.77,-5.69,0,*54
1508724053.41,17339,11.25,72840.5,-4.45,-5.93,-5.77,0,*50
1508724054.62,17340,11.25,72838.3,-4.43,-6.01,-5.97,0,*5E
1508724055.87,17341,11.19,72832.8,-4.45,-5.93,-5.93,0,*55
1508724057.07,17342,11.19,72828.5,-4.45,-6.01,-6.01,0,*56
1508724058.32,17343,11.25,72830.3,-4.45,-5.93,-5.81,0,*54
1508724059.58,17344,11.25,72830.5,-4.43,-5.85,-5.77,0,*5B
1508724060.85,17345,11.25,72822.8,-4.43,-5.77,-5.73,0,*53
1508724062.1,17346,11.19,72816.3,-4.45,-5.89,-5.81,0,*5A
1508724063.34,17347,11.25,72808.5,-4.45,-5.81,-5.81,0,*53
1508724064.59,17348,11.25,72810.3,-4.43,-5.65,-5.51,0,*5D
1508724065.82,17349,11.25,72804.8,-4.45,-5.69,-5.55,0,*52
1508724067.06,17350,11.25,72800.8,-4.43,-5.73,-5.51,0,*53
1508724068.3,17351,11.25,72802.0,-4.43,-5.73,-5.51,0,*52
1508724069.54,17352,11.25,72834.0,-4.43,-5.65,-5.51,0,*56
1508724070.81,17353,11.25,72836.3,-4.43,-5.65,-5.61,0,*54
1508724072.09,17354,11.25,72832.5,-4.43,-5.89,-5.85,0,*5B
1508724073.36,17355,11.25,72818.5,-4.43,-5.85,-5.77,0,*5B
1508724074.6,17356,11.25,72822.5,-4.43,-5.65,-5.51,0,*52
1508724075.8,17357,11.25,72824.8,-4.41,-5.55,-5.43,0,*51
1508724077.03,17358,11.25,72826.8,-4.45,-5.65,-5.55,0,*5E
1508724078.25,17359,11.25,72820.8,-4.43,-5.51,-5.51,0,*5A
1508724079.45,17360,11.25,72822.3,-4.41,-5.47,-5.35,0,*57
1508724080.64,17361,11.25,72828.0,-4.41,-5.35,-5.35,0,*53
1508724081.83,17362,11.25,72826.3,-4.41,-5.47,-5.43,0,*54
1508724083.05,17363,11.25,72826.5,-4.39,-5.47,-5.35,0,*5B
1508724084.29,17364,11.25,72830.5,-4.39,-5.43,-5.31,0,*5C
1508724085.5,17365,11.19,72828.0,-4.39,-5.47,-5.47,0,*58
1508724086.7,17366,11.25,72828.8,-4.41,-5.55,-5.43,0,*53
1508724087.9,17367,11.25,72828.0,-4.41,-5.55,-5.47,0,*56
1508724089.1,17368,11.25,72828.0,-4.41,-5.47,-5.35,0,*5F
1508724090.33,17369,11.25,72834.3,-4.39,-5.43,-5.31,0,*51
1508724091.55,17370,11.25,72830.3,-4.39,-5.47,-5.43,0,*58
1508724092.82,17371,11.19,72824.5,-4.39,-5.81,-5.69,0,*5B
1508724094.04,17372,11.25,72820.8,-4.41,-5.61,-5.55,0,*56
1508724095.25,17373,11.19,72824.5,-4.39,-5.47,-5.47,0,*5F
1508724096.47,17374,11.25,72824.3,-4.39,-5.55,-5.43,0,*5F
1508724097.69,17375,11.25,72824.8,-4.39,-5.47,-5.43,0,*5D
1508724098.9,17376,11.25,72828.5,-4.39,-5.47,-5.35,0,*5F
1508724100.1,17377,11.25,72826.8,-4.41,-5.47,-5.43,0,*50
1508724101.3,17378,11.25,72824.8,-4.41,-5.55,-5.43,0,*5C
1508724102.49,17379,11.25,72828.5,-4.41,-5.43,-5.35,0,*5B
1508724103.68,17380,11.25,72828.5,-4.41,-5.55,-5.47,0,*5F
1508724104.9,17381,11.25,72834.8,-4.39,-5.55,-5.35,0,*54
1508724106.15,17382,11.19,72830.5,-4.41,-5.61,-5.61,0,*5E
1508724107.42,17383,11.19,72834.3,-4.39,-5.69,-5.61,0,*58
1508724108.66,17384,11.19,72834.0,-4.37,-5.77,-5.69,0,*56
1508724109.93,17385,11.19,72832.8,-4.39,-5.69,-5.61,0,*5E
1508724111.18,17386,11.19,72830.5,-4.37,-5.69,-5.65,0,*57
1508724112.44,17387,11.19,72834.8,-4.39,-5.61,-5.61,0,*54
1508724113.68,17388,11.19,72834.0,-4.39,-5.61,-5.55,0,*5C
1508724114.92,17389,11.19,72832.3,-4.39,-5.61,-5.47,0,*5E
1508724116.17,17390,11.19,72838.0,-4.39,-5.61,-5.55,0,*55
1508724117.38,17391,11.19,72832.8,-4.41,-5.61,-5.47,0,*58
1508724118.63,17392,11.19,72828.3,-4.41,-5.69,-5.61,0,*57
1508724119.9,17393,11.19,72828.3,-4.39,-5.69,-5.61,0,*59
1508724121.14,17394,11.19,72832.5,-4.41,-5.73,-5.69,0,*52
1508724122.4,17395,11.19,72832.8,-4.39,-5.81,-5.73,0,*5A
1508724123.64,17396,11.19,72834.3,-4.41,-5.73,-5.73,0,*5B
1508724124.88,17397,11.19,72834.3,-4.41,-5.73,-5.69,0,*51
1508724126.15,17398,11.19,72836.3,-4.39,-5.69,-5.61,0,*52
1508724127.35,17399,11.25,72838.3,-4.41,-5.55,-5.47,0,*57
1508724128.59,17400,11.25,72836.0,-4.39,-5.69,-5.47,0,*50
1508724129.82,17401,11.25,72834.8,-4.41,-5.69,-5.55,0,*5D
1508724131.02,17402,11.19,72838.0,-4.41,-5.55,-5.55,0,*51
1508724132.22,17403,11.25,72840.0,-4.41,-5.47,-5.43,0,*54
1508724133.41,17404,11.19,72836.3,-4.41,-5.47,-5.43,0,*53
1508724134.6,17405,11.19,72840.3,-4.41,-5.43,-5.35,0,*57
1508724135.8,17406,11.19,72840.3,-4.41,-5.47,-5.35,0,*50
1508724137.07,17407,11.25,72844.3,-4.39,-5.69,-5.61,0,*53
1508724138.29,17408,11.25,72840.5,-4.41,-5.61,-5.55,0,*5C
1508724139.53,17409,11.19,72840.0,-4.41,-5.69,-5.69,0,*5A
1508724140.8,17410,11.25,72834.3,-4.39,-5.81,-5.81,0,*5D
1508724142.07,17411,11.25,72832.0,-4.39,-5.93,-5.85,0,*5B
1508724143.32,17412,11.19,72828.8,-4.41,-5.85,-5.81,0,*54
1508724144.57,17413,11.25,72830.5,-4.41,-5.85,-5.73,0,*58
1508724145.82,17414,11.19,72826.0,-4.41,-5.93,-5.73,0,*58
1508724147.06,17415,11.19,72828.0,-4.41,-5.73,-5.69,0,*5C
1508724148.3,17416,11.19,72832.0,-4.41,-5.73,-5.61,0,*57
1508724149.56,17417,11.19,72832.0,-4.39,-5.73,-5.69,0,*51
1508724150.81,17418,11.19,72824.3,-4.41,-5.69,-5.61,0,*52
1508724152.05,17419,11.25,72820.8,-4.39,-5.61,-5.55,0,*53
1508724153.27,17420,11.25,72824.3,-4.41,-5.61,-5.47,0,*55
1508724154.49,17421,11.19,72824.0,-4.41,-5.69,-5.55,0,*5F
1508724155.74,17422,11.19,72826.0,-4.41,-5.81,-5.81,0,*53
1508724156.99,17423,11.19,72824.0,-4.41,-5.93,-5.73,0,*5C
1508724158.23,17424,11.25,72824.5,-4.41,-5.81,-5.69,0,*53
1508724159.48,17425,11.19,72824.0,-4.41,-5.73,-5.61,0,*57
1508724160.72,17426,11.19,72826.8,-4.41,-5.61,-5.61,0,*57
1508724161.95,17427,11.19,72820.8,-4.41,-5.61,-5.55,0,*51
1508724163.19,17428,11.19,72822.3,-4.41,-5.73,-5.61,0,*5A
1508724164.46,17429,11.25,72830.3,-4.43,-5.77,-5.65,0,*59
1508724165.72,17430,11.25,72830.3,-4.43,-5.65,-5.73,0,*55
1508724166.99,17431,11.19,72830.8,-4.43,-5.65,-5.65,0,*53
1508724168.26,17432,11.19,72824.8,-4.43,-5.61,-5.61,0,*50
1508724169.46,17433,11.25,72832.0,-4.41,-5.47,-5.35,0,*56
1508724170.66,17434,11.19,72834.0,-4.41,-5.55,-5.55,0,*54
1508724171.89,17435,11.25,72842.0,-4.41,-5.55,-5.61,0,*52
1508724173.11,17436,11.19,72832.5,-4.41,-5.43,-5.31,0,*53
1508724174.31,17437,11.19,72830.8,-4.41,-5.55,-5.47,0,*54
1508724175.56,17438,11.19,72824.5,-4.41,-5.69,-5.61,0,*50
1508724176.78,17439,11.19,72828.8,-4.39,-5.47,-5.47,0,*56
1508724177.98,17440,11.19,72828.5,-4.41,-5.55,-5.55,0,*57
1508724179.18,17441,11.19,72834.8,-4.41,-5.47,-5.43,0,*52
1508724180.39,17442,11.19,72834.0,-4.39,-5.47,-5.47,0,*5A
1508724181.59,17443,11.25,72838.0,-4.41,-5.47,-5.43,0,*50
1508724182.81,17444,11.19,72838.3,-4.41,-5.47,-5.31,0,*52
1508724184.05,17445,11.19,72834.8,-4.39,-5.35,-5.31,0,*59
1508724185.3,17446,11.19,72828.0,-4.39,-5.35,-5.31,0,*5A
1508724186.54,17447,11.25,72838.0,-4.39,-5.35,-5.23,0,*58
1508724187.76,17448,11.19,72832.3,-4.39,-5.55,-5.43,0,*57
1508724188.95,17449,11.19,72834.5,-4.41,-5.43,-5.43,0,*5E
1508724190.16,17450,11.19,72838.5,-4.39,-5.43,-5.43,0,*59
1508724191.37,17451,11.19,72834.3,-4.39,-5.47,-5.47,0,*58
1508724192.6,17452,11.19,72836.3,-4.39,-5.55,-5.55,0,*5B
1508724193.81,17453,11.19,72838.0,-4.39,-5.43,-5.43,0,*5A
1508724195.06,17454,11.19,72834.5,-4.41,-5.31,-5.31,0,*52
1508724196.33,17455,11.19,72834.5,-4.39,-5.31,-5.31,0,*5C
1508724197.52,17456,11.19,72834.8,-4.37,-5.51,-5.51,0,*51
1508724198.77,17457,11.19,72830.5,-4.41,-5.61,-5.61,0,*51
1508724199.98,17458,11.19,72826.8,-4.39,-5.35,-5.35,0,*51
1508724201.23,17459,11.19,72836.0,-4.39,-5.35,-5.23,0,*57
1508724202.44,17460,11.19,72838.5,-4.39,-5.47,-5.43,0,*5E
1508724203.65,17461,11.19,72838.3,-4.37,-5.55,-5.55,0,*55
1508724204.91,17462,11.19,72852.5,-4.39,-5.61,-5.69,0,*50
1508724206.16,17463,11.19,72848.0,-4.41,-5.61,-5.61,0,*56
1508724207.36,17464,11.19,72840.3,-4.39,-5.43,-5.43,0,*5E
1508724208.64,17465,11.19,72834.0,-4.39,-5.23,-5.23,0,*5F
1508724209.91,17466,11.19,72832.8,-4.39,-5.31,-5.31,0,*5C
1508724211.18,17467,11.19,72832.5,-4.39,-5.31,-5.23,0,*5E
1508724212.46,17468,11.19,72842.8,-4.39,-5.23,-5.23,0,*52
1508724213.73,17469,11.19,72842.0,-4.39,-5.31,-5.31,0,*53
1508724215.0,17470,11.19,72840.8,-4.39,-5.23,-5.23,0,*5B
1508724216.25,17471,11.19,72826.5,-4.37,-5.27,-5.19,0,*59
1508724217.44,17472,11.19,72822.5,-4.37,-5.51,-5.51,0,*57
1508724218.71,17473,11.19,72830.8,-4.39,-5.61,-5.69,0,*50
1508724219.97,17474,11.19,72826.5,-4.39,-5.81,-5.81,0,*5F
1508724221.16,17475,11.19,72818.8,-4.37,-5.43,-5.43,0,*50
1508724222.37,17476,11.19,72824.0,-4.39,-5.43,-5.47,0,*59
1508724223.56,17477,11.19,72824.5,-4.37,-5.51,-5.43,0,*51
1508724224.76,17478,11.19,72830.8,-4.41,-5.55,-5.55,0,*5C
1508724225.97,17479,11.19,72826.0,-4.39,-5.43,-5.47,0,*56
1508724227.2,17480,11.19,72826.5,-4.39,-5.55,-5.55,0,*54
1508724228.46,17481,11.19,72828.5,-4.39,-5.73,-5.61,0,*56
1508724229.66,17482,11.19,72824.5,-4.41,-5.55,-5.47,0,*5A
1508724230.91,17483,11.19,72828.5,-4.39,-5.61,-5.55,0,*50
1508724232.15,17484,11.19,72828.3,-4.41,-5.61,-5.61,0,*5F
1508724233.34,17485,11.19,72830.0,-4.41,-5.43,-5.35,0,*5F
1508724234.56,17486,11.19,72834.3,-4.41,-5.35,-5.31,0,*59
1508724235.75,17487,11.19,72830.3,-4.41,-5.43,-5.43,0,*5C
1508724236.97,17488,11.19,72826.0,-4.41,-5.35,-5.31,0,*57
1508724238.2,17489,11.19,72828.0,-4.39,-5.47,-5.55,0,*5E
1508724239.41,17490,11.19,72830.3,-4.37,-5.31,-5.39,0,*53
1508724240.62,17491,11.19,72828.0,-4.39,-5.43,-5.43,0,*54
1508724241.82,17492,11.19,72828.3,-4.41,-5.47,-5.47,0,*58
1508724243.03,17493,11.19,72824.8,-4.39,-5.43,-5.35,0,*57
1508724244.22,17494,11.19,72828.8,-4.41,-5.35,-5.43,0,*5F
1508724245.41,17495,11.19,72824.0,-4.41,-5.35,-5.35,0,*5F
1508724246.65,17496,11.19,72830.5,-4.39,-5.35,-5.31,0,*57
1508724247.88,17497,11.19,72826.5,-4.41,-5.35,-5.23,0,*5A
1508724249.12,17498,11.19,72832.0,-4.39,-5.43,-5.23,0,*5B
1508724250.32,17499,11.19,72824.3,-4.41,-5.55,-5.43,0,*54
1508724251.51,17500,11.19,72826.3,-4.41,-5.35,-5.35,0,*52
1508724252.75,17501,11.19,72824.8,-4.39,-5.43,-5.31,0,*59
1508724253.99,17502,11.19,72828.3,-4.39,-5.43,-5.31,0,*5A
1508724255.21,17503,11.19,72826.0,-4.39,-5.47,-5.35,0,*5B
1508724256.42,17504,11.19,72826.3,-4.39,-5.47,-5.35,0,*5C
1508724257.64,17505,11.19,72828.8,-4.39,-5.55,-5.43,0,*5F
1508724258.85,17506,11.19,72828.3,-4.39,-5.43,-5.35,0,*5A
1508724260.07,17507,11.19,72826.0,-4.39,-5.55,-5.43,0,*5D
1508724261.29,17508,11.19,72826.3,-4.39,-5.55,-5.43,0,*52
1508724262.49,17509,11.19,72832.5,-4.39,-5.43,-5.43,0,*54
1508724263.71,17510,11.19,72832.0,-4.37,-5.39,-5.19,0,*50
1508724264.92,17511,11.19,72838.3,-4.39,-5.43,-5.43,0,*5D
1508724266.18,17512,11.19,72832.3,-4.39,-5.73,-5.73,0,*5E
1508724267.38,17513,11.19,72824.5,-4.37,-5.51,-5.55,0,*55
1508724268.59,17514,11.19,72830.3,-4.39,-5.47,-5.47,0,*58
1508724269.84,17515,11.19,72830.0,-4.39,-5.61,-5.55,0,*5E
1508724271.05,17516,11.19,72834.8,-4.39,-5.47,-5.43,0,*5E
1508724272.26,17517,11.19,72834.8,-4.39,-5.47,-5.43,0,*5F
1508724273.49,17518,11.19,72834.3,-4.41,-5.69,-5.55,0,*54
1508724274.74,17519,11.19,72832.3,-4.41,-5.69,-5.61,0,*52
1508724276.01,17520,11.19,72834.0,-4.39,-5.61,-5.61,0,*5F
1508724277.22,17521,11.19,72832.5,-4.39,-5.35,-5.35,0,*5E
1508724278.46,17522,11.19,72828.5,-4.39,-5.31,-5.35,0,*59
1508724279.66,17523,11.19,72828.5,-4.41,-5.55,-5.43,0,*54
1508724280.86,17524,11.19,72834.3,-4.41,-5.47,-5.47,0,*54
1508724282.04,17525,11.19,72832.5,-4.37,-5.43,-5.39,0,*59
1508724283.26,17526,11.19,72836.3,-4.39,-5.55,-5.43,0,*5E
1508724284.49,17527,11.19,72836.5,-4.39,-5.55,-5.55,0,*58
1508724285.71,17528,11.19,72836.3,-4.39,-5.55,-5.47,0,*54
1508724286.93,17529,11.19,72832.0,-4.39,-5.55,-5.47,0,*55
1508724288.15,17530,11.19,72838.8,-4.39,-5.55,-5.55,0,*5E
1508724289.42,17531,11.19,72836.0,-4.39,-5.61,-5.61,0,*5F
1508724290.63,17532,11.19,72838.3,-4.39,-5.47,-5.35,0,*59
1508724291.88,17533,11.19,72840.0,-4.39,-5.35,-5.31,0,*59
1508724293.08,17534,11.19,72836.5,-4.39,-5.43,-5.47,0,*5E
1508724294.31,17535,11.19,72838.8,-4.39,-5.47,-5.55,0,*58
1508724295.52,17536,11.19,72838.0,-4.39,-5.47,-5.47,0,*58
1508724296.79,17537,11.19,72842.0,-4.39,-5.61,-5.61,0,*59
1508724298.05,17538,11.19,72838.0,-4.39,-5.61,-5.61,0,*56
1508724299.3,17539,11.19,72836.3,-4.37,-5.65,-5.65,0,*59
1508724300.52,17540,11.19,72842.0,-4.41,-5.61,-5.55,0,*51
1508724301.72,17541,11.19,72844.0,-4.41,-5.55,-5.43,0,*50
1508724302.91,17542,11.19,72842.5,-4.41,-5.47,-5.47,0,*54
1508724304.13,17543,11.19,72838.0,-4.39,-5.47,-5.43,0,*5E
1508724305.32,17544,11.19,72838.3,-4.41,-5.43,-5.43,0,*52
1508724306.53,17545,11.19,72840.0,-4.39,-5.35,-5.35,0,*5C
1508724307.8,17546,11.19,72836.8,-4.39,-5.31,-5.23,0,*5C
1508724309.06,17547,11.19,72834.8,-4.41,-5.23,-5.23,0,*51
1508724310.33,17548,11.19,72844.5,-4.39,-5.23,-5.19,0,*58
1508724311.6,17549,11.19,72848.0,-4.39,-5.19,-5.19,0,*50
1508724312.86,17550,11.19,72842.5,-4.39,-5.19,-5.19,0,*58
1508724314.13,17551,11.19,72846.8,-4.39,-5.19,-5.19,0,*59
1508724315.38,17552,11.19,72844.5,-4.39,-5.55,-5.61,0,*5D
1508724316.59,17553,11.19,72850.8,-4.39,-5.35,-5.43,0,*5A
1508724317.85,17554,11.19,72850.5,-4.41,-5.23,-5.23,0,*53
1508724319.1,17555,11.19,72850.0,-4.41,-5.19,-5.19,0,*52
1508724320.35,17556,11.19,72844.0,-4.41,-5.15,-5.19,0,*5D
1508724321.61,17557,11.19,72846.5,-4.39,-5.19,-5.19,0,*5F
1508724322.89,17558,11.19,72842.0,-4.39,-5.23,-5.23,0,*50
1508724324.16,17559,11.19,72848.0,-4.39,-5.23,-5.19,0,*58
1508724325.37,17560,11.19,72846.0,-4.39,-5.35,-5.35,0,*5B
1508724326.64,17561,11.19,72842.8,-4.39,-5.23,-5.31,0,*59
1508724327.91,17562,11.19,72840.5,-4.39,-5.31,-5.31,0,*59
1508724329.18,17563,11.19,72838.5,-4.39,-5.31,-5.31,0,*58
1508724330.46,17564,11.19,72834.8,-4.39,-5.23,-5.23,0,*5F
1508724331.73,17565,11.19,72838.8,-4.39,-5.31,-5.31,0,*5E
1508724332.97,17566,11.19,72838.0,-4.39,-5.31,-5.43,0,*58
1508724334.24,17567,11.19,72842.3,-4.39,-5.19,-5.23,0,*55
1508724335.51,17568,11.19,72840.5,-4.39,-5.19,-5.23,0,*5A
1508724336.78,17569,11.19,72840.3,-4.39,-5.07,-5.15,0,*51
1508724338.06,17570,11.19,72840.5,-4.39,-5.07,-5.07,0,*5A
1508724339.33,17571,11.19,72842.0,-4.39,-5.07,-5.03,0,*5F
1508724340.6,17572,11.19,72842.5,-4.39,-5.03,-5.03,0,*58
1508724341.87,17573,11.19,72842.5,-4.39,-5.03,-4.89,0,*5A
1508724343.14,17574,11.19,72846.0,-4.39,-5.03,-5.03,0,*5E
1508724344.38,17575,11.19,72844.5,-4.37,-4.89,-4.85,0,*5D
1508724345.6,17576,11.19,72846.8,-4.37,-4.99,-4.89,0,*53
1508724346.84,17577,11.19,72846.5,-4.37,-5.11,-5.03,0,*50
1508724348.09,17578,11.19,72844.0,-4.37,-5.15,-5.15,0,*5C
1508724349.36,17579,11.19,72846.5,-4.39,-5.31,-5.23,0,*50
1508724350.61,17580,11.19,72844.0,-4.37,-5.19,-5.15,0,*57
1508724351.85,17581,11.19,72848.8,-4.37,-5.19,-5.19,0,*5A
1508724353.09,17582,11.19,72848.8,-4.37,-5.19,-5.19,0,*59
1508724354.34,17583,11.19,72848.3,-4.37,-5.19,-5.15,0,*54
1508724355.59,17584,11.19,72854.5,-4.37,-5.15,-5.15,0,*5F
1508724356.83,17585,11.19,72852.8,-4.37,-5.27,-5.27,0,*5E
1508724358.05,17586,11.19,72850.3,-4.37,-5.27,-5.39,0,*52
1508724359.26,17587,11.19,72852.8,-4.37,-5.31,-5.39,0,*54
1508724360.45,17588,11.19,72850.3,-4.37,-5.43,-5.43,0,*53
1508724361.65,17589,11.19,72850.3,-4.37,-5.55,-5.55,0,*52
1508724362.85,17590,11.19,72850.0,-4.37,-5.51,-5.55,0,*5E
1508724364.05,17591,11.19,72846.5,-4.37,-5.51,-5.43,0,*58
1508724365.24,17592,11.19,72844.8,-4.37,-5.51,-5.51,0,*58
1508724366.51,17593,11.19,72846.8,-4.39,-5.61,-5.61,0,*57
1508724367.78,17594,11.19,72846.5,-4.39,-5.69,-5.61,0,*58
1508724369.05,17595,11.19,72850.5,-4.39,-5.85,-5.93,0,*56
1508724370.31,17596,11.19,72854.0,-4.39,-5.69,-5.81,0,*54
1508724371.58,17597,11.19,72852.3,-4.39,-5.73,-5.85,0,*5A
1508724372.85,17598,11.19,72856.0,-4.39,-5.85,-5.81,0,*58
1508724374.1,17599,11.19,72852.8,-4.41,-5.85,-5.85,0,*52
1508724375.35,17600,11.19,72852.8,-4.41,-5.85,-5.85,0,*51
1508724376.57,17601,11.19,72846.3,-4.41,-5.97,-5.93,0,*54
1508724377.8,17602,11.19,72844.5,-4.41,-5.97,-5.93,0,*57
1508724379.05,17603,11.19,72842.3,-4.41,-5.85,-5.81,0,*56
1508724380.3,17604,11.19,72844.0,-4.41,-5.93,-5.81,0,*56
1508724381.54,17605,11.19,72842.3,-4.41,-5.93,-5.93,0,*54
1508724382.8,17606,11.19,72840.3,-4.41,-5.85,-5.93,0,*50
1508724384.04,17607,11.19,72836.5,-4.41,-5.85,-5.73,0,*5F
1508724385.31,17608,11.19,72838.8,-4.43,-5.89,-5.77,0,*5A
1508724386.57,17609,11.19,72836.8,-4.43,-5.77,-5.77,0,*5A
1508724387.82,17610,11.19,72836.0,-4.45,-5.77,-5.65,0,*57
1508724389.06,17611,11.19,72838.3,-4.45,-5.69,-5.77,0,*5A
1508724390.3,17612,11.19,72842.8,-4.45,-5.77,-5.81,0,*5F
1508724391.57,17613,11.19,72844.3,-4.43,-5.61,-5.77,0,*56
1508724392.79,17614,11.19,72844.8,-4.45,-5.55,-5.77,0,*50
1508724394.04,17615,11.19,72850.5,-4.43,-5.51,-5.65,0,*50
1508724395.28,17616,11.19,72850.3,-4.43,-5.27,-5.39,0,*5B
1508724396.5,17617,11.19,72850.8,-4.45,-5.31,-5.39,0,*5B
1508724397.72,17618,11.19,72850.8,-4.45,-5.31,-5.43,0,*59
1508724398.96,17619,11.19,72852.8,-4.43,-5.51,-5.73,0,*5B
1508724400.2,17620,11.19,72852.8,-4.45,-5.65,-5.77,0,*54
1508724401.43,17621,11.19,72856.3,-4.45,-5.55,-5.77,0,*56
1508724402.62,17622,11.19,72852.3,-4.45,-5.39,-5.43,0,*58
1508724403.81,17623,11.19,72844.8,-4.45,-5.51,-5.43,0,*57
1508724405.01,17624,11.19,72852.0,-4.45,-5.39,-5.43,0,*5E
1508724406.23,17625,11.19,72848.8,-4.45,-5.51,-5.65,0,*55
1508724407.47,17626,11.19,72852.3,-4.45,-5.65,-5.69,0,*5D
1508724408.7,17627,11.19,72852.3,-4.45,-5.55,-5.65,0,*53
1508724409.94,17628,11.19,72850.3,-4.45,-5.69,-5.77,0,*50
1508724411.19,17629,11.19,72846.3,-4.45,-5.65,-5.69,0,*52
1508724412.38,17630,11.19,72842.3,-4.45,-5.43,-5.51,0,*55
1508724413.57,17631,11.19,72836.8,-4.45,-5.43,-5.43,0,*57
1508724414.76,17632,11.19,72842.5,-4.45,-5.39,-5.43,0,*59
1508724415.98,17633,11.19,72844.0,-4.43,-5.39,-5.39,0,*53
1508724417.17,17634,11.19,72850.5,-4.45,-5.51,-5.43,0,*51
1508724418.42,17635,11.19,72848.5,-4.45,-5.77,-5.81,0,*5A
1508724419.67,17636,11.19,72848.8,-4.45,-5.89,-5.89,0,*50
1508724420.89,17637,11.19,72846.5,-4.45,-5.93,-6.01,0,*59
1508724422.11,17638,11.19,72850.3,-4.47,-5.55,-5.55,0,*5C
1508724423.36,17639,11.19,72840.0,-4.47,-5.65,-5.55,0,*5E
1508724424.58,17640,11.19,72840.5,-4.47,-5.43,-5.55,0,*54
1508724425.79,17641,11.19,72842.0,-4.47,-5.43,-5.43,0,*52
1508724427.02,17642,11.19,72846.0,-4.47,-5.27,-5.39,0,*5E
1508724428.26,17643,11.19,72844.8,-4.47,-5.27,-5.39,0,*5F
1508724429.5,17644,11.19,72844.0,-4.47,-5.27,-5.39,0,*58
1508724430.77,17645,11.19,72852.5,-4.47,-5.27,-5.31,0,*51
1508724432.01,17646,11.19,72852.0,-4.47,-5.31,-5.43,0,*50
1508724433.25,17647,11.19,72854.8,-4.47,-5.43,-5.65,0,*50
1508724434.49,17648,11.19,72844.0,-4.47,-5.55,-5.69,0,*54
1508724435.71,17649,11.19,72840.5,-4.45,-5.31,-5.43,0,*5D
1508724436.94,17650,11.19,72846.0,-4.45,-5.31,-5.43,0,*55
1508724438.13,17651,11.19,72844.3,-4.45,-5.43,-5.51,0,*52
1508724439.32,17652,11.19,72838.5,-4.45,-5.43,-5.43,0,*52
1508724440.59,17653,11.19,72834.3,-4.47,-5.31,-5.31,0,*51
1508724441.86,17654,11.19,72842.8,-4.47,-5.31,-5.27,0,*51
1508724443.13,17655,11.19,72840.0,-4.47,-5.27,-5.23,0,*53
1508724444.4,17656,11.19,72842.3,-4.47,-5.31,-5.31,0,*54
1508724445.68,17657,11.19,72846.3,-4.47,-5.23,-5.15,0,*50
1508724446.93,17658,11.19,72846.8,-4.45,-5.23,-5.23,0,*58
1508724448.18,17659,11.19,72850.0,-4.45,-5.15,-5.11,0,*5D
1508724449.45,17660,11.19,72850.5,-4.43,-5.19,-5.11,0,*5D
1508724450.7,17661,11.19,72850.5,-4.45,-5.27,-5.27,0,*52
1508724451.98,17662,11.19,72850.0,-4.43,-5.23,-5.23,0,*57
1508724453.23,17663,11.19,72850.5,-4.45,-5.27,-5.23,0,*54
1508724454.44,17664,11.19,72848.3,-4.43,-5.39,-5.35,0,*5D
1508724455.69,17665,11.19,72836.0,-4.45,-5.31,-5.31,0,*56
1508724456.94,17666,11.19,72832.5,-4.45,-5.27,-5.23,0,*51
1508724458.22,17667,11.19,72828.5,-4.43,-5.19,-5.23,0,*5B
1508724459.5,17668,11.19,72820.8,-4.43,-5.23,-5.23,0,*5D
1508724460.77,17669,11.19,72816.8,-4.43,-5.23,-5.23,0,*5C
1508724462.05,17670,11.19,72820.0,-4.43,-5.23,-5.19,0,*5D
1508724463.29,17671,11.19,72822.5,-4.43,-5.35,-5.27,0,*56
1508724464.57,17672,11.19,72824.5,-4.43,-5.27,-5.19,0,*5B
1508724465.84,17673,11.19,72832.0,-4.43,-5.19,-5.19,0,*57
1508724467.11,17674,11.19,72832.3,-4.43,-5.19,-5.11,0,*58
1508724468.38,17675,11.19,72830.5,-4.43,-5.07,-5.11,0,*56
1508724469.63,17676,11.19,72832.5,-4.41,-5.03,-5.03,0,*50
1508724470.87,17677,11.19,72830.3,-4.41,-4.89,-4.93,0,*5A
1508724472.11,17678,11.19,72832.5,-4.41,-4.93,-4.93,0,*5E
1508724473.35,17679,11.19,72832.5,-4.41,-4.89,-4.89,0,*5F
1508724474.59,17680,11.19,72836.3,-4.41,-4.77,-4.81,0,*50
1508724475.83,17681,11.19,72834.8,-4.41,-4.77,-4.77,0,*58
1508724477.09,17682,11.19,72834.5,-4.39,-4.89,-4.93,0,*5F
1508724478.36,17683,11.19,72830.5,-4.39,-5.19,-5.07,0,*5A
1508724479.63,17684,11.19,72824.5,-4.39,-5.19,-5.19,0,*52
1508724480.84,17685,11.19,72826.3,-4.39,-5.35,-5.35,0,*53
1508724482.08,17686,11.19,72830.8,-4.39,-5.31,-5.35,0,*54
1508724483.3,17687,11.19,72826.0,-4.39,-5.55,-5.47,0,*52
1508724484.51,17688,11.19,72822.8,-4.39,-5.47,-5.47,0,*5E
1508724485.73,17689,11.19,72820.5,-4.41,-5.31,-5.43,0,*55
1508724487.01,17690,11.19,72818.5,-4.39,-5.19,-5.23,0,*5E
1508724488.28,17691,11.19,72822.0,-4.39,-5.31,-5.31,0,*56
1508724489.55,17692,11.19,72830.0,-4.39,-5.23,-5.23,0,*55
1508724490.82,17693,11.19,72822.0,-4.39,-5.03,-4.93,0,*5C
1508724492.08,17694,11.19,72826.0,-4.39,-4.81,-4.89,0,*5B
1508724493.33,17695,11.19,72832.0,-4.39,-4.69,-4.77,0,*5D
1508724494.53,17696,11.19,72828.8,-4.41,-4.57,-4.57,0,*5E
1508724495.75,17697,11.19,72834.0,-4.39,-4.65,-4.57,0,*51
1508724497.0,17698,11.19,72834.5,-4.39,-4.69,-4.77,0,*50
1508724498.24,17699,11.19,72840.3,-4.37,-4.73,-4.73,0,*50
1508724499.47,17700,11.19,72836.8,-4.37,-4.73,-4.73,0,*51
1508724500.7,17701,11.19,72842.0,-4.35,-4.65,-4.65,0,*52
1508724501.9,17702,11.19,72848.3,-4.37,-4.61,-4.65,0,*57
1508724503.09,17703,11.19,72842.5,-4.37,-4.61,-4.61,0,*52
1508724504.33,17704,11.19,72848.3,-4.33,-4.69,-4.69,0,*51
1508724505.58,17705,11.19,72850.5,-4.33,-4.69,-4.69,0,*50
1508724506.83,17706,11.19,72850.3,-4.33,-4.69,-4.73,0,*58
1508724508.06,17707,11.19,72850.3,-4.37,-4.77,-4.77,0,*56
1508724509.31,17708,11.19,72852.8,-4.33,-4.73,-4.85,0,*54
1508724510.56,17709,11.19,72852.5,-4.33,-4.85,-4.85,0,*5C